Flag for Kazakhstan Weather past 2 weeks in Shymkent, Kazakhstan

Now
93 °F

Passing clouds.


Feels Like: 89 °F
Forecast: 68 / 96 °F
Wind: 6 mph from Northwest

Location: Shymkent Airport

Current Time: Jul 7, 2015 at 1:34:44 PM

Latest Report: Jul 7, 2015 at 1:00 PM


Visibility: N/A

Pressure: 29.74 "Hg (28.11 "Hg at 506m altitude)

Humidity: 14%

Dew point: 37 °F

Location of ShymkentLocation

Historic Weather in Shymkent — Graph

°F

Shymkent temperature yesterday

Maximum temperature yesterday: 93 °F (at 3:30 PM)
Minimum temperature yesterday: 70 °F (at 5:30 AM)
Average temperature yesterday: 82 °F

Past Weeks' High & Low Weather Summary

 TemperatureHumidityPressure
High106 °F (Jul 2, 4:00 PM)73% (Jun 25, 3:00 AM)29.86 "Hg (Jun 25, 3:00 AM)
Low61 °F (Jul 7, 6:00 AM)7% (Jul 1, 2:00 PM)29.50 "Hg (Jun 23, 5:30 PM)
Average84 °F30%29.71 "Hg
* Reported Jun 22 12:00 Noon — Jul 7 12:00 Noon, Shymkent, Weather by CustomWeather, © 2015

Note: Actual official high and low records may vary slightly from our data, if they occured in-between our weather recording intervals... More about our weather records

Advertising

Shymkent weather history for previous 24 hours

 ConditionsComfort  
Time TempWeatherWind HumidityBarometerVisibility
12:00 PM
Tue, Jul 7
91 °FSunny.3 mph16%29.74 "Hg10 mi
11:30 AM90 °FPassing clouds.3 mph16%29.74 "HgN/A
11:00 AM90 °FPassing clouds.3 mph18%29.74 "HgN/A
10:30 AM90 °FSunny.1 mph20%29.74 "Hg10 mi
10:00 AM86 °FSunny.3 mph24%29.74 "Hg10 mi
9:30 AM86 °FSunny.1 mph20%29.77 "Hg10 mi
9:00 AM81 °FSunny.3 mph32%29.77 "Hg10 mi
8:30 AM79 °FSunny.6 mph32%29.77 "Hg10 mi
8:00 AM75 °FSunny.1 mph34%29.77 "Hg10 mi
7:30 AM72 °FSunny.No wind41%29.77 "Hg10 mi
7:00 AM68 °FSunny.1 mph46%29.77 "Hg10 mi
6:30 AM63 °FSunny.1 mph56%29.77 "Hg10 mi
6:00 AM61 °FSunny.3 mph55%29.77 "Hg10 mi
5:30 AM63 °FClear.1 mph52%29.77 "Hg10 mi
5:00 AM64 °FClear.No wind46%29.77 "Hg10 mi
4:30 AM64 °FClear.1 mph40%29.77 "Hg10 mi
3:30 AM64 °FClear.No wind40%29.80 "Hg10 mi
3:00 AM64 °FClear.No wind46%29.80 "Hg10 mi
2:30 AM64 °FClear.No wind43%29.80 "Hg10 mi
2:00 AM68 °FClear.1 mph33%29.80 "Hg10 mi
1:30 AM70 °FClear.1 mph31%29.80 "Hg10 mi
1:00 AM72 °FClear.1 mph29%29.80 "Hg10 mi
12:30 AM73 °FClear.1 mph27%29.83 "Hg10 mi
12:00 AM73 °FClear.1 mph25%29.83 "Hg10 mi
11:30 PM
Mon, Jul 6
75 °FClear.6 mph25%29.83 "Hg10 mi
11:00 PM77 °FPassing clouds.3 mph21%29.83 "HgN/A
10:30 PM79 °FClear.6 mph21%29.83 "Hg10 mi
10:00 PM79 °FClear.6 mph21%29.83 "Hg10 mi
9:30 PM81 °FClear.6 mph20%29.80 "Hg10 mi
9:00 PM84 °FClear.6 mph18%29.80 "Hg10 mi
8:30 PM88 °FSunny.10 mph13%29.80 "Hg10 mi
8:00 PM90 °FSunny.15 mph13%29.80 "Hg10 mi
7:30 PM91 °FSunny.10 mph13%29.80 "Hg10 mi
7:00 PM91 °FSunny.10 mph13%29.80 "Hg10 mi
6:30 PM91 °FSunny.10 mph13%29.80 "Hg10 mi
6:00 PM91 °FSunny.10 mph12%29.80 "Hg10 mi
5:30 PM93 °FSunny.13 mph13%29.80 "Hg10 mi
5:00 PM93 °FSunny.13 mph13%29.80 "Hg10 mi
4:30 PM93 °FSunny.13 mph12%29.80 "Hg10 mi
4:00 PM91 °FSunny.13 mph12%29.80 "Hg10 mi
3:30 PM93 °FSunny.8 mph12%29.80 "Hg10 mi
3:00 PM91 °FSunny.8 mph13%29.80 "Hg10 mi
2:30 PM91 °FSunny.8 mph12%29.83 "Hg10 mi
2:00 PM90 °FSunny.15 mph14%29.83 "Hg10 mi
1:30 PM90 °FSunny.15 mph15%29.83 "Hg10 mi
1:00 PM88 °FSunny.15 mph13%29.83 "Hg10 mi
Weather by CustomWeather, © 2015

See weather overviewHow to use our weather pages